Weather in Polonoye

Russia / Pskov Oblast     57°46′52″N   29°38′11″E
temp.,
°C
wind,
m/s
gust,
m/s
humid.,
%
clouds,
%
prec.,
mm/h
press.,
hPa
HPBL,
m
16 april, fri
fri1600:00+6ne51369100 0.0 1023667
03:00+5ne51278100 0.0 1023572
06:00+3ne51381100 0.0 1023491
09:00+5ne5137499 0.0 1023561
12:00+9ene61065100 0.0 1024842
15:00+12ene696093 0.0 10231081
18:00+12ene5106496 0.0 10231102
21:00+9ene51273100 0.0 1024643
17 april, sat
sat1700:00+8ene4127392 0.0 1025522
03:00+6ne41270100 0.0 1025431
06:00+4ne41276100 0.0 1025419
09:00+6ene5972100 0.0 1026474
12:00+10ene4766100 0.0 1026774
15:00+13ne4763100 0.0 10261151
18:00+13ne4863100 0.0 1025976
21:00+9ne3117199 0.0 1026325
18 april, sun
sun1800:00+7ne3116932 0.0 1026354
03:00+5ne310765 0.0 1026265
06:00+3ne311832 0.0 1026277
09:00+8ene49645 0.0 1026496
12:00+12ene57474 0.0 10261207
15:00+14ene56405 0.0 10251739
18:00+13ne47455 0.0 10251872
21:00+8ne39675 0.0 1026173
19 april, mon
mon1900:00+6ene310715 0.0 1026250
03:00+4ne28825 0.0 1027158
06:00+3ne27925 0.0 1027169
09:00+8ene37685 0.0 1027479
12:00+12ene475232 0.0 10261662
15:00+11ene4760100 0.1 10251030
18:00+11e476098 0.0 10241257
21:00+7e497783 0.0 1025572
20 april, tue
tue2000:00+7e4977100 0.0 1023735
03:00+7ene4880100 0.1 1022873
06:00+6ene3981100 0.1 1021625
09:00+7ene4977100 0.1 1019589
12:00+10e5759100 0.0 10171446
15:00+10ene4755100 0.1 10151788
18:00+9ene4961100 0.0 10121288
21:00+7ne51168100 0.0 1010906